Theta_e
321 319 319 319 319 320 322 323 323 322 320 320 322 322 322 323 321 320 324 326 326 326 324 321 321 320 319 319 318 317 317 316 316 316 316 316 316 317 317 317 318 319 319 319 320 320 320 321 322 322 323 324 324 324 325 326 326 327 328 329 329 329 327 326 325 324 323 324 327 326 325 324 324 324 324 324 323 322 322 322 321 320 319 318 318 319 320
321 320 320 319 319 320 322 322 323 323 323 323 325 325 325 325 323 323 325 325 324 323 320 318 318 317 317 317 316 316 315 315 316 315 315 315 315 315 315 314 315 316 315 316 316 317 319 320 321 321 322 323 323 323 324 324 325 326 326 327 328 328 327 326 326 326 325 325 327 326 325 324 324 323 323 324 323 322 321 321 320 319 318 318 319 320 321
321 320 320 319 319 321 323 322 321 322 324 324 324 325 325 325 325 325 325 324 320 317 316 316 315 315 315 315 315 315 314 314 314 314 313 313 313 313 313 313 315 316 315 315 315 316 318 320 321 322 321 322 322 322 323 323 324 325 325 325 326 326 327 326 326 326 326 326 326 325 325 324 324 323 322 322 322 321 321 321 320 320 319 318 319 320 320
321 320 319 319 319 321 323 322 320 320 323 323 322 322 322 324 325 325 325 324 319 315 315 315 314 314 314 314 313 312 311 311 311 312 312 312 311 312 311 312 314 316 316 316 315 315 317 318 320 321 321 321 321 321 322 322 323 324 324 324 324 325 325 325 326 326 326 325 325 325 324 323 323 323 322 321 319 319 319 317 316 318 320 320 320 320 320
320 320 320 319 319 320 322 320 317 317 320 321 321 320 320 322 323 323 324 322 317 314 314 313 313 313 312 311 311 310 309 309 309 309 310 310 310 311 310 310 312 314 315 316 316 316 317 318 318 319 320 320 321 321 321 322 322 323 323 323 323 323 323 324 325 325 325 325 325 324 324 323 322 323 322 321 319 317 317 314 311 313 316 317 316 315 316
319 320 320 319 319 320 318 314 313 315 317 319 320 319 319 319 320 319 319 317 314 313 313 312 310 310 309 308 308 308 308 307 307 307 307 307 308 308 308 309 310 311 313 316 317 317 318 318 318 318 319 320 320 320 320 321 321 322 322 322 323 322 322 322 323 323 323 324 324 323 323 322 322 322 322 321 319 317 317 315 312 313 314 313 311 311 311
318 319 320 321 321 318 314 312 312 313 314 316 317 316 316 317 318 317 316 314 313 312 311 309 308 308 307 306 306 306 306 306 305 305 305 305 305 306 306 308 309 310 313 315 316 316 317 318 317 317 317 317 318 319 320 320 320 321 321 321 321 321 321 321 322 322 322 322 322 322 322 321 321 321 321 321 318 315 314 313 313 314 315 315 314 313 313
317 318 320 321 318 313 312 312 311 312 313 314 315 315 314 314 315 315 313 311 311 310 309 307 307 306 306 305 305 305 305 305 305 305 304 304 304 304 305 307 309 311 313 314 315 315 316 317 316 316 316 315 316 318 319 319 319 319 320 320 320 320 320 320 320 321 321 322 322 322 322 321 320 321 321 320 317 313 310 310 311 311 313 316 317 316 315
317 318 318 316 314 313 313 312 310 310 311 311 313 315 314 312 312 313 311 309 309 309 308 307 307 307 306 305 304 304 304 303 303 304 303 303 303 304 305 306 308 310 311 312 313 314 315 315 316 316 316 315 315 315 316 317 317 318 319 319 319 319 319 319 319 320 320 320 320 321 321 321 320 321 320 320 318 315 312 311 311 311 312 314 316 318 318
315 317 317 315 316 316 314 312 310 309 309 309 310 313 314 312 312 312 310 309 309 308 308 308 308 309 308 306 304 304 304 303 303 303 302 302 303 304 305 306 307 307 309 310 312 312 313 313 314 314 315 315 316 315 314 314 315 316 317 317 317 317 318 318 318 319 319 318 318 318 319 319 320 320 319 319 319 318 316 314 313 313 314 314 315 318 319
314 316 317 316 317 315 311 310 310 310 310 309 310 314 315 312 310 311 310 309 308 308 309 308 309 311 309 305 303 303 303 303 303 303 303 302 303 304 304 305 306 306 306 307 308 309 310 309 309 311 312 314 315 315 314 314 314 314 315 315 315 315 316 317 317 318 318 318 317 317 317 318 319 319 318 319 318 318 318 317 316 316 316 316 316 318 319
314 315 315 314 314 312 309 308 310 310 310 310 312 317 316 311 309 310 309 309 308 308 308 307 307 308 307 304 302 302 302 302 302 302 302 302 302 303 303 304 305 305 306 306 307 307 307 306 306 307 309 311 312 312 311 312 313 312 312 312 313 313 313 315 315 316 316 316 317 317 317 318 319 318 318 319 318 317 317 318 318 318 318 317 318 319 319
314 314 314 312 310 308 307 308 309 309 310 312 315 316 312 309 309 309 308 308 307 307 306 304 302 303 303 302 301 300 300 300 300 300 301 301 301 302 302 302 302 303 305 306 306 306 306 305 304 304 306 307 307 307 308 308 308 307 307 308 310 310 311 312 313 313 314 314 314 314 314 315 316 317 317 317 317 317 317 317 317 317 318 318 318 318 318
312 313 313 313 310 307 306 308 309 308 311 314 313 311 310 309 308 307 307 306 305 303 303 301 300 300 300 300 299 299 299 299 299 299 299 300 300 300 300 300 300 300 301 303 303 303 303 303 302 302 304 305 305 305 305 305 304 304 304 305 306 307 307 308 308 309 309 310 310 311 310 311 312 313 313 313 313 314 314 314 314 314 314 315 315 315 315
311 312 312 313 311 307 305 307 308 307 309 310 309 308 309 309 307 307 307 305 303 302 300 299 299 299 299 298 298 298 298 298 298 298 298 299 299 299 299 298 297 297 298 299 299 300 300 301 300 300 301 302 303 304 304 303 302 303 304 305 306 306 306 306 306 307 306 307 307 307 308 308 309 309 310 310 310 311 311 311 311 312 312 312 312 312 312
311 312 310 309 307 305 304 306 306 306 306 307 307 309 309 308 307 307 305 303 302 301 300 299 299 298 298 297 297 297 297 297 297 298 298 298 298 299 299 299 298 297 297 296 297 297 297 297 297 298 299 299 299 300 301 301 300 300 300 301 303 304 305 306 307 307 307 307 307 306 306 305 305 306 307 308 308 309 309 310 310 310 310 311 311 311 310
307 307 305 304 304 304 304 304 304 304 305 306 307 308 308 308 308 307 304 303 302 300 299 299 299 298 298 297 297 297 297 297 297 297 297 297 296 297 298 298 298 299 299 297 297 297 296 296 296 296 296 297 297 298 298 298 298 298 297 297 298 299 300 301 303 304 304 304 305 305 304 303 302 302 303 304 305 306 306 307 307 307 308 309 309 308 308
305 304 304 304 304 303 303 302 302 303 303 304 305 306 306 307 307 305 304 302 301 300 300 299 299 299 299 298 298 297 297 297 297 297 297 297 297 297 297 298 298 300 300 299 298 298 297 298 298 297 296 296 296 296 296 296 296 296 296 296 296 297 298 298 299 299 300 300 300 299 299 300 299 299 300 300 301 302 303 304 304 304 304 305 305 305 305
306 305 304 303 303 303 302 302 301 301 302 302 303 303 304 305 304 303 302 301 301 300 300 300 300 300 299 299 299 298 298 298 298 298 298 298 298 297 298 298 299 300 300 300 300 299 298 298 299 299 298 297 296 296 296 296 296 296 296 296 296 297 298 298 297 297 298 298 298 297 298 299 299 298 298 297 297 298 299 301 303 302 301 301 302 303 303
304 304 303 303 303 302 302 301 301 301 301 301 301 301 302 303 302 302 301 301 300 300 300 299 300 299 299 299 299 298 298 298 298 298 298 297 297 297 298 299 299 300 300 299 299 299 298 298 298 298 297 297 296 296 296 296 296 295 296 296 297 297 297 297 298 298 298 298 297 296 297 298 298 297 297 296 296 296 297 298 299 300 300 300 299 300 302
304 304 304 304 303 302 302 301 301 300 300 300 300 300 300 301 301 301 301 301 301 300 300 300 300 300 300 300 300 300 299 299 298 298 298 298 297 297 298 299 299 299 299 299 298 298 297 297 297 297 296 296 296 296 297 297 296 296 297 298 298 299 299 298 299 299 299 299 298 297 296 295 295 296 296 295 295 295 295 296 296 296 297 297 296 297 300
305 304 304 304 303 303 302 301 300 300 301 300 299 299 299 299 299 299 299 299 300 300 300 300 300 300 300 300 300 300 300 300 300 299 299 299 299 299 299 299 299 299 299 299 298 298 298 297 296 296 296 296 296 296 296 297 298 299 299 299 299 299 299 299 300 300 300 300 300 299 298 297 295 294 294 294 295 295 294 295 295 295 295 295 294 295 296
305 304 304 303 303 303 302 302 301 301 301 301 301 300 300 299 299 298 298 299 299 299 299 299 299 299 300 300 300 300 300 300 300 299 299 298 298 298 299 299 299 299 299 299 299 299 299 298 298 297 296 296 296 296 297 298 300 300 301 300 299 299 298 299 299 299 299 299 299 300 300 299 298 297 295 294 294 294 295 295 295 295 295 295 295 295 295
305 304 304 304 304 303 303 302 302 302 302 302 301 301 301 301 301 300 300 300 300 299 299 299 299 299 299 299 299 299 299 299 299 298 298 297 297 297 298 298 299 299 299 299 299 299 299 298 298 298 297 297 297 298 298 299 300 300 300 300 299 299 298 298 298 299 299 299 298 299 299 299 300 300 299 298 296 295 294 294 295 295 295 295 295 295 295
304 304 303 303 303 303 302 302 302 301 301 301 301 300 300 300 300 300 300 300 299 299 299 299 299 298 298 298 298 298 298 298 297 297 297 297 297 297 297 298 298 298 298 298 298 298 298 298 298 298 298 298 298 298 299 299 299 299 300 300 300 299 299 299 298 298 298 298 298 298 298 298 297 298 299 299 299 298 297 296 295 295 295 295 295 294 294
303 303 303 302 302 302 302 302 301 301 300 300 300 300 299 299 298 298 298 298 298 298 298 298 298 298 298 298 297 298 298 297 296 297 298 298 297 297 297 297 297 297 298 298 298 298 297 297 297 298 298 298 298 298 298 298 299 298 298 298 298 299 299 300 299 299 299 298 298 297 297 296 296 296 296 297 298 298 298 298 298 297 297 297 296 294 294
302 302 302 302 302 301 301 301 301 300 300 300 300 299 299 299 299 299 298 298 298 298 298 297 297 297 297 297 297 297 297 297 297 298 298 298 297 297 297 296 296 296 297 298 298 297 297 297 297 297 297 297 297 298 298 298 298 298 298 298 297 297 298 298 299 298 298 297 297 296 295 295 295 296 296 296 297 297 297 297 298 298 298 297 296 295 295
302 302 302 302 301 301 300 300 300 300 300 299 299 299 299 299 299 299 298 298 298 298 298 297 297 297 297 297 297 297 297 297 297 298 297 297 297 297 296 296 296 296 297 298 297 297 297 297 297 297 297 297 297 297 297 298 298 298 298 298 298 298 298 298 298 297 296 295 295 294 293 294 294 295 295 296 297 297 297 296 297 297 297 297 297 296 295
301 301 301 300 300 300 300 300 300 300 299 299 299 299 299 299 299 299 299 299 298 298 298 297 297 298 297 297 297 297 297 297 297 297 297 297 297 296 296 296 295 296 297 297 298 297 297 297 297 297 297 297 297 297 297 297 298 298 298 298 298 298 298 298 297 296 295 293 293 292 292 294 296 296 296 296 297 297 297 296 296 297 297 296 296 296 296
300 300 300 300 300 300 300 300 300 300 299 299 299 299 299 299 299 299 299 299 299 299 298 298 298 298 297 297 297 297 297 297 297 297 297 297 296 296 296 295 295 296 297 298 298 297 297 297 297 297 297 297 297 297 297 297 297 297 297 297 297 297 297 298 298 297 295 293 292 293 294 295 296 296 296 296 296 296 296 295 295 296 296 296 296 295 295
300 300 300 300 300 300 300 300 300 299 299 299 299 299 299 299 299 299 299 299 299 299 299 298 298 298 297 297 297 297 297 297 297 297 297 296 296 296 295 294 295 296 297 297 297 297 297 297 297 296 296 297 297 297 297 297 297 297 297 296 296 296 296 296 296 296 296 294 293 294 295 296 296 295 295 296 296 296 295 295 295 295 296 296 295 295 295
300 300 300 300 300 300 300 300 300 299 299 299 299 299 299 299 299 299 299 299 299 299 298 298 298 298 298 297 297 297 297 297 297 297 296 296 296 297 295 293 293 294 294 296 297 297 296 297 297 296 296 297 297 297 298 298 298 298 297 296 296 296 295 295 296 296 295 295 295 295 295 296 296 295 295 295 295 295 295 295 295 295 295 295 295 295 295
301 301 300 300 300 300 300 300 300 299 299 299 299 299 299 299 299 299 299 299 299 298 298 298 298 298 298 297 297 297 297 296 296 296 295 294 294 294 293 290 289 291 293 296 297 296 296 297 297 296 296 296 297 297 297 298 298 298 297 297 297 296 295 296 296 296 296 296 295 295 294 295 296 295 295 295 295 295 294 295 295 295 295 295 295 295 295
301 301 300 300 300 300 300 300 299 300 299 299 299 299 299 299 299 299 299 298 298 298 298 298 298 298 298 297 297 296 295 295 294 294 293 291 290 290 290 288 288 291 294 296 296 296 296 296 296 296 296 296 297 297 297 297 297 297 297 297 297 296 296 296 297 297 296 296 296 295 294 294 294 295 295 295 294 294 294 294 295 294 294 295 295 295 295
300 300 300 300 300 300 300 300 300 299 299 299 299 299 299 299 299 298 298 298 298 298 298 297 297 297 297 296 296 295 293 292 291 291 290 290 289 289 289 289 290 293 295 296 296 296 296 296 296 296 296 296 297 297 297 297 297 297 297 297 297 297 297 297 297 296 296 296 296 295 294 293 293 294 295 295 294 294 294 294 294 294 294 294 294 294 294
300 300 300 300 300 300 300 299 299 299 299 299 299 299 299 299 299 299 298 298 298 298 297 297 296 296 295 294 293 292 291 291 290 290 290 290 291 292 292 292 292 294 295 296 296 296 296 296 296 296 296 296 297 297 297 297 297 296 297 297 297 297 297 297 296 296 296 296 295 294 293 293 293 293 294 294 294 294 294 294 294 294 294 294 294 294 294
299 300 300 300 300 300 299 299 299 299 299 299 299 299 299 299 299 299 298 298 298 297 297 296 295 295 293 292 291 291 290 290 290 290 291 293 294 294 294 295 295 295 296 296 296 296 296 296 295 295 295 296 297 297 297 296 296 296 297 297 297 297 297 296 297 297 296 296 295 294 294 294 294 294 294 294 294 294 294 294 294 294 294 294 294 294 294
300 300 300 300 300 300 299 299 299 299 299 299 299 299 299 299 299 298 298 298 298 297 297 296 296 295 294 293 292 292 292 291 290 290 292 293 293 293 293 295 296 296 297 297 297 296 296 296 295 294 295 296 297 297 297 296 295 296 297 296 296 297 297 297 297 297 296 296 296 295 295 295 295 294 294 294 294 293 293 293 293 293 294 294 294 294 294
300 300 300 300 300 299 299 299 299 299 299 299 299 299 299 299 299 298 298 298 298 297 297 297 296 296 296 296 295 294 294 293 291 291 292 292 291 291 292 293 295 295 296 297 296 296 295 296 295 295 296 296 297 297 297 295 295 296 296 296 296 297 297 296 297 297 296 296 296 296 296 295 294 294 294 294 294 293 293 293 293 293 294 294 294 294 293
300 300 300 300 299 299 299 299 299 299 299 299 299 299 299 299 299 299 298 298 298 297 297 297 297 297 297 296 296 295 295 294 293 292 291 291 291 291 292 294 294 293 293 295 296 296 295 295 295 295 296 296 297 297 297 295 295 296 297 296 296 297 297 297 297 297 297 297 296 296 296 295 294 294 294 294 294 294 294 294 294 294 294 294 294 293 293
300 300 299 299 299 299 299 299 299 299 299 299 299 299 299 299 299 299 298 298 298 298 298 297 297 297 297 297 296 296 295 294 294 293 293 292 292 293 294 295 295 293 291 292 294 295 295 295 295 296 296 297 297 297 296 295 295 296 297 297 296 297 297 297 297 297 297 297 297 296 296 296 295 294 294 294 294 294 294 294 294 294 294 294 293 293 293
300 299 299 299 299 299 299 299 299 299 299 299 299 299 299 299 299 299 298 298 298 298 298 298 298 297 297 297 297 296 296 295 295 294 294 293 293 294 294 295 296 294 291 290 291 292 293 294 295 295 296 297 297 296 296 296 296 296 296 297 297 297 297 297 297 297 297 297 297 296 296 296 296 295 295 294 294 294 294 294 294 294 294 294 293 293 293
299 299 299 299 299 299 299 299 299 299 299 299 299 299 299 299 299 299 299 298 298 299 298 298 298 298 297 297 297 297 297 296 295 295 295 295 294 294 293 294 295 294 291 289 289 291 293 294 295 295 296 296 296 297 296 296 296 296 296 296 296 297 297 296 296 296 296 296 296 296 296 296 296 295 295 294 294 294 294 294 294 294 294 294 294 293 293
299 299 299 299 299 299 299 299 299 299 299 299 299 299 299 299 299 299 299 298 298 298 298 298 298 298 298 298 298 297 297 297 296 296 296 296 296 295 294 293 293 293 291 290 291 293 295 295 296 296 295 294 294 295 295 296 296 296 296 296 296 296 296 296 296 295 295 296 296 296 296 296 296 295 295 295 294 294 294 294 294 294 294 294 294 294 293
299 299 299 299 299 299 299 299 299 299 299 299 299 299 299 299 299 299 299 299 299 299 298 298 298 298 298 298 298 298 297 297 297 296 296 296 296 296 295 294 293 293 292 291 291 293 294 295 295 295 294 292 291 292 294 295 296 296 296 296 296 296 296 296 295 295 295 295 296 296 296 296 295 295 295 295 294 294 294 294 294 294 294 294 294 294 293
299 299 299 299 299 299 299 299 299 299 299 299 299 299 299 299 299 299 299 299 299 299 299 299 299 298 298 298 298 298 298 298 297 296 296 296 296 296 295 294 293 294 293 293 292 292 293 293 292 291 290 289 289 291 293 295 296 296 296 296 296 296 296 296 295 295 295 295 295 295 295 295 295 295 295 294 294 294 294 293 293 293 293 293 293 293 293
299 299 299 299 299 299 299 299 299 299 299 299 299 299 299 299 299 299 299 299 299 299 299 299 299 299 298 298 298 298 298 298 297 297 296 296 296 296 295 294 293 294 295 294 293 293 293 292 289 288 288 288 289 290 293 295 295 296 296 296 296 296 296 296 295 295 295 295 295 295 295 295 294 294 294 294 294 294 293 293 292 293 293 293 293 292 292
299 299 299 299 299 299 299 299 298 299 299 299 299 299 299 298 299 299 299 299 299 299 299 299 299 299 298 298 298 298 298 297 297 297 297 297 297 297 296 295 295 294 295 295 294 295 295 293 291 289 288 288 289 291 293 295 295 296 296 296 296 296 296 295 295 295 295 295 295 295 295 294 294 294 294 294 294 294 294 293 292 293 293 293 292 291 291
299 299 299 299 299 299 299 299 298 299 299 298 298 298 298 298 299 299 299 299 299 299 299 299 299 299 299 298 298 298 298 298 297 297 297 298 298 297 297 296 296 295 295 295 295 295 295 295 294 292 290 288 289 292 294 295 295 295 296 296 296 296 296 295 295 295 295 295 295 295 294 295 294 294 294 294 294 294 294 294 293 293 293 293 292 292 291
298 299 299 299 299 299 299 299 299 298 298 298 299 299 299 299 299 299 299 298 299 299 299 299 299 299 299 299 299 298 298 298 298 298 298 298 298 298 297 297 296 296 295 295 295 295 295 295 294 294 292 290 289 292 294 296 296 295 295 295 295 296 296 295 294 294 294 294 295 295 294 294 294 294 294 294 294 293 293 293 293 293 292 291 292 292 292
298 299 299 299 298 298 298 298 299 299 299 299 299 299 299 299 299 299 298 298 298 298 298 298 298 298 298 299 299 298 298 298 298 298 298 298 298 297 297 297 297 296 296 295 295 295 295 295 294 294 294 293 292 292 294 295 295 295 296 295 295 296 296 295 294 294 294 294 294 294 294 294 294 294 294 294 294 293 293 293 293 292 292 290 290 291 291
298 299 299 298 298 298 298 298 298 298 298 298 298 299 299 299 299 299 299 298 298 298 298 298 298 298 298 298 298 298 298 298 298 298 298 297 297 297 297 297 297 296 296 296 295 295 295 295 295 294 294 294 294 294 294 294 293 294 295 295 295 295 295 295 294 294 294 293 293 293 293 293 293 293 293 294 294 294 294 293 293 292 291 291 290 290 290
Wind_Speed
5 3 1 3 5 2 1 3 5 6 6 8 11 11 6 2 2 1 5 7 4 6 9 8 7 7 6 7 9 10 12 12 12 12 12 12 11 10 9 8 8 9 9 9 9 9 10 10 9 10 10 8 7 5 5 7 9 12 12 9 8 12 15 14 16 18 17 17 19 19 18 17 17 17 15 14 13 12 12 11 10 10 10 11 12 11 10
5 3 1 1 5 5 2 2 1 1 3 4 4 3 4 3 0 4 10 12 8 7 8 8 8 9 9 9 10 11 13 13 13 13 13 13 12 11 10 9 8 9 10 11 11 11 10 9 8 8 9 10 9 8 8 8 6 7 10 10 9 11 15 15 16 19 20 19 20 21 20 18 18 19 19 17 15 13 12 11 10 9 10 11 11 11 10
6 4 3 2 3 7 3 3 5 4 1 1 4 5 5 3 3 8 12 12 9 6 7 9 9 9 11 11 11 12 12 13 14 13 12 12 11 11 10 8 9 10 11 13 14 13 11 9 9 9 10 10 9 8 8 8 8 7 6 8 9 10 13 14 15 18 20 21 21 21 21 20 19 20 21 21 20 18 16 14 13 11 10 10 10 10 9
6 6 7 6 3 7 6 3 6 7 4 3 4 5 6 5 3 7 7 5 5 5 7 10 10 10 11 11 11 12 11 12 13 13 13 12 11 11 10 8 9 10 11 13 14 14 13 12 12 12 12 11 10 10 9 8 8 9 7 7 9 9 9 11 13 15 17 19 20 20 21 22 22 22 22 20 20 20 19 17 16 15 13 12 11 11 10
5 4 5 6 5 6 6 2 5 7 5 3 3 4 6 7 2 4 3 3 7 9 9 9 9 10 11 11 11 11 11 11 12 12 12 12 12 12 11 9 10 10 11 12 13 14 16 15 15 14 13 13 14 13 11 9 8 8 8 9 10 11 10 8 9 12 14 18 20 20 20 21 21 22 22 20 20 19 17 16 16 16 15 14 13 13 13
4 3 3 4 6 6 2 2 4 5 5 4 2 5 7 8 6 5 6 8 10 11 9 9 10 11 12 13 13 12 10 11 11 12 11 11 11 11 11 10 11 12 13 13 13 14 17 18 18 17 16 16 17 15 12 10 10 11 11 10 10 12 13 11 9 9 13 16 19 20 20 18 18 20 21 22 22 20 16 15 15 14 12 11 11 11 11
1 3 4 5 5 3 2 4 3 4 4 4 6 7 8 8 7 9 10 10 10 11 11 13 14 15 16 16 16 14 12 11 11 11 11 11 12 12 11 12 14 15 16 16 16 16 16 17 18 18 18 19 17 15 13 12 12 12 13 13 12 13 15 15 13 11 11 11 12 15 16 16 19 20 20 20 21 21 18 16 15 13 10 8 9 9 9
1 3 5 4 2 2 3 4 5 4 3 3 4 5 7 9 7 8 11 10 11 13 14 15 17 18 20 20 19 16 14 13 12 12 12 12 13 13 13 15 18 19 19 18 18 18 17 16 16 17 18 19 17 16 15 14 14 14 13 14 13 13 15 15 14 15 14 11 10 11 12 13 16 17 15 16 20 22 21 21 21 19 13 9 9 10 11
4 3 2 3 3 4 3 3 5 4 3 4 4 2 5 7 5 6 10 10 11 13 14 15 17 17 18 17 16 15 14 14 14 14 14 15 16 17 19 21 23 22 21 20 19 19 18 17 17 16 17 18 18 19 18 16 16 15 15 14 14 14 14 12 12 14 14 14 12 10 10 11 12 12 12 13 17 19 20 20 21 20 17 12 10 11 13
4 3 3 4 5 3 4 5 5 3 1 3 5 2 4 5 5 7 9 10 11 13 14 14 14 11 10 9 9 11 12 13 14 15 18 20 21 22 23 23 23 23 23 22 21 21 21 20 20 18 16 16 16 18 19 19 18 17 17 18 18 17 16 15 13 13 13 14 14 11 9 11 10 9 9 10 12 14 17 18 18 17 16 14 12 12 15
3 3 4 4 3 3 5 6 5 5 3 2 3 2 3 4 5 7 9 10 11 12 12 9 6 4 5 5 6 9 9 11 14 17 20 21 21 22 22 21 21 21 21 21 21 22 22 22 21 19 17 16 16 18 20 21 21 21 20 20 20 19 18 17 16 15 14 13 12 10 9 11 11 9 9 9 9 9 11 14 16 16 16 15 13 13 14
4 5 3 2 3 4 6 8 7 6 4 2 3 2 2 4 5 9 10 12 12 10 9 7 4 2 6 7 7 8 8 10 14 17 20 20 19 20 20 19 19 18 17 18 19 20 21 21 20 19 18 17 17 19 20 20 21 21 20 20 20 20 20 19 18 18 16 15 14 13 11 11 12 12 11 10 10 10 8 8 10 12 13 13 12 12 13
4 6 2 4 4 3 8 10 7 6 5 3 1 1 2 5 9 11 11 11 10 8 10 11 9 10 12 12 11 11 12 14 16 17 18 18 18 18 18 18 17 16 15 15 16 17 17 17 17 17 17 17 17 18 18 18 19 19 18 16 16 17 18 18 17 17 17 16 16 15 14 12 11 12 11 10 9 9 8 7 6 7 9 8 8 8 9
3 3 2 5 5 5 13 13 7 7 5 1 2 3 2 8 12 13 12 12 12 13 16 20 19 19 19 19 17 17 17 17 17 17 16 16 15 16 17 17 17 16 15 14 13 13 13 12 13 13 13 14 15 15 16 16 16 15 14 14 14 14 14 14 15 15 14 15 15 16 16 15 13 12 12 12 11 10 8 8 7 5 6 5 5 6 6
1 1 2 3 4 7 17 13 5 7 6 1 3 3 7 12 12 13 13 13 16 21 23 23 23 24 24 22 21 21 21 20 18 16 14 13 13 13 14 14 15 15 15 14 13 12 11 10 10 10 9 10 10 11 12 13 12 11 10 10 10 10 10 11 12 12 12 11 12 12 13 14 13 13 12 12 13 11 8 8 9 8 7 6 4 3 4
2 2 3 3 2 7 14 11 5 6 8 5 3 4 12 13 12 14 16 15 18 23 25 23 22 23 24 22 21 20 19 20 19 16 13 12 12 12 12 12 13 14 13 13 13 11 10 9 8 8 8 8 8 8 8 9 9 9 8 8 7 7 7 7 7 7 7 7 7 7 8 8 9 9 9 10 12 11 8 7 7 6 6 5 4 3 3
5 6 5 4 5 7 11 12 9 8 10 10 11 12 13 13 13 15 18 18 20 22 25 24 21 19 20 21 21 20 18 17 17 16 13 12 12 12 11 11 12 12 11 11 11 11 10 10 9 7 7 7 6 6 7 7 7 7 7 7 7 7 6 6 5 5 4 4 4 4 4 5 5 6 6 8 9 10 9 7 6 6 6 5 5 4 4
9 11 10 8 9 11 12 13 12 11 13 17 19 18 16 15 16 18 19 22 21 19 21 22 20 17 17 17 17 17 16 15 14 13 11 10 10 11 11 11 11 10 9 10 10 10 10 10 10 9 9 7 6 6 6 6 6 6 6 6 7 8 8 7 6 6 5 5 4 4 4 3 3 4 5 6 7 7 6 5 5 5 5 5 5 4 3
5 7 10 10 10 11 12 13 14 15 16 19 22 23 22 20 20 21 21 21 20 18 18 19 19 18 16 15 15 13 12 11 10 9 8 8 7 8 8 9 9 9 8 8 9 9 8 8 9 9 8 7 7 6 6 5 5 5 5 6 7 8 8 8 8 7 8 7 6 6 6 6 5 4 3 3 4 5 6 5 5 4 3 4 4 3 2
8 8 11 15 16 16 14 13 13 14 16 19 22 24 25 24 22 21 20 19 18 17 16 16 17 17 15 14 14 12 10 9 8 7 7 6 6 7 8 7 7 7 7 7 7 7 7 7 7 7 6 6 6 6 6 5 5 5 6 7 8 8 8 9 9 9 9 8 7 6 5 6 6 5 5 4 3 2 3 5 5 4 4 3 4 4 3
10 10 12 14 16 17 16 15 15 15 16 19 21 24 26 26 23 22 21 19 17 16 15 15 15 14 13 12 11 10 9 8 7 6 6 5 6 7 7 7 7 8 8 8 7 7 7 6 5 4 4 3 4 5 5 5 5 6 7 8 9 10 10 10 10 10 10 9 8 8 7 7 7 7 7 7 7 6 5 4 3 4 4 3 4 4 2
6 7 9 11 11 12 14 15 17 18 19 22 23 24 24 24 22 22 22 21 19 17 16 14 13 13 12 10 9 9 8 7 6 6 5 5 5 6 6 6 7 8 8 8 8 8 7 7 5 4 4 4 4 4 4 5 7 8 8 8 8 8 9 9 9 9 9 9 8 7 7 8 9 10 10 9 8 7 6 5 4 3 3 2 2 2 2
9 12 15 16 15 15 16 17 18 18 19 21 22 22 21 20 19 19 19 19 17 16 15 13 11 11 10 8 8 7 7 7 6 5 5 5 5 5 5 6 6 7 7 8 8 7 8 7 6 6 5 5 5 5 6 7 7 7 6 7 7 7 8 10 10 9 8 8 8 7 6 6 7 7 8 8 7 7 6 5 5 4 3 2 2 1 3
15 16 17 17 17 17 17 17 17 16 16 17 18 18 17 17 16 15 15 14 13 11 10 9 9 9 8 7 7 6 6 6 5 5 5 6 5 5 5 5 5 6 7 7 7 7 7 7 6 6 6 6 6 6 7 7 7 6 6 7 8 8 8 9 10 9 7 7 7 7 7 6 5 4 6 7 7 7 7 6 6 6 6 6 5 5 5
18 18 18 18 18 18 17 16 16 16 15 15 16 16 15 15 14 12 11 10 9 8 8 7 6 6 6 6 5 5 5 4 4 4 5 6 6 5 5 5 4 5 6 6 6 6 6 6 6 5 5 6 6 7 6 6 6 7 7 7 7 8 8 8 8 7 7 7 7 7 7 6 5 5 4 3 4 6 7 8 9 10 10 9 8 8 7
18 17 17 17 17 16 16 15 15 15 14 15 15 15 14 14 14 13 11 9 8 7 7 6 5 4 4 4 4 4 3 3 2 2 2 4 4 4 4 4 4 4 5 5 4 4 4 5 5 5 5 6 6 6 6 6 6 6 7 7 7 8 10 9 7 6 7 7 6 6 6 6 6 5 5 5 4 4 4 7 10 12 13 14 13 12 10
15 14 14 14 14 14 14 14 14 14 13 13 13 12 12 12 12 12 10 8 8 7 6 5 5 4 4 4 3 3 3 2 1 1 1 2 3 3 4 3 3 3 4 4 5 5 6 5 3 4 4 4 4 5 5 6 6 6 7 8 7 8 10 9 7 6 6 5 5 6 6 6 6 5 5 5 5 5 4 4 6 7 9 11 13 15 12
12 11 12 12 13 14 13 13 14 13 12 11 11 10 10 10 9 9 8 7 6 6 5 5 4 4 4 3 3 2 2 1 0 1 1 1 2 3 3 3 2 2 3 3 4 5 5 2 1 2 3 3 3 4 4 5 6 6 6 6 5 5 5 7 6 5 4 4 5 5 6 6 6 5 5 6 6 5 5 5 5 6 6 6 9 14 14
13 13 14 14 15 14 13 13 12 11 10 9 9 8 8 7 6 6 6 5 4 4 3 3 2 2 2 1 1 1 1 1 1 2 2 2 3 3 3 2 2 2 2 2 3 3 2 0 0 1 1 2 2 3 3 4 5 5 4 4 5 5 4 5 6 5 4 5 5 5 5 7 7 6 6 6 6 6 5 6 7 6 5 5 7 9 11
13 13 13 14 13 12 12 11 11 10 9 8 7 6 5 5 5 5 4 3 2 2 2 1 1 1 1 0 1 0 1 2 2 3 3 3 3 3 3 3 3 2 1 2 2 2 1 1 1 2 2 2 2 3 3 4 4 4 3 5 8 9 8 7 6 5 5 5 5 5 6 7 6 6 6 6 6 6 6 7 8 7 6 6 7 6 6
12 12 12 11 11 10 10 9 9 8 7 6 5 5 4 3 3 4 3 2 1 1 0 1 2 2 2 2 2 2 2 2 3 3 3 3 4 3 3 3 4 3 1 2 3 1 0 1 3 3 2 2 2 3 3 3 4 4 2 3 6 6 6 7 7 6 6 5 5 5 7 6 5 6 7 7 7 7 6 7 8 7 7 7 7 7 7
11 10 9 9 9 8 8 7 7 7 6 4 4 4 3 3 3 3 2 2 2 2 2 2 3 3 3 3 3 3 3 3 4 4 4 4 3 3 3 3 3 4 2 2 3 2 2 3 3 3 3 3 3 3 3 3 4 4 2 3 3 2 3 5 6 5 6 6 6 5 5 5 5 5 6 7 7 7 7 7 7 7 8 8 7 8 10
8 8 8 7 7 6 6 5 5 5 4 3 3 3 3 2 2 2 2 3 3 3 3 3 3 3 3 3 2 3 3 4 5 5 5 4 4 5 6 6 5 3 2 2 3 3 3 4 5 4 4 4 3 3 3 3 3 3 3 4 3 2 2 5 5 4 4 5 5 5 5 5 5 5 6 7 7 7 7 7 7 7 7 7 7 8 10
5 6 7 6 6 5 5 4 4 3 3 2 2 2 2 2 2 2 2 2 3 3 3 2 1 2 2 2 3 5 6 7 6 6 8 8 8 7 7 6 5 3 2 3 3 3 4 5 5 5 5 5 4 3 3 3 3 3 3 4 4 3 1 2 2 2 3 3 4 5 5 4 5 5 5 5 6 6 6 7 7 7 7 7 6 7 10
5 6 6 6 5 5 4 4 3 3 2 2 1 2 2 1 2 2 2 2 2 3 3 2 1 0 2 4 6 8 9 8 7 7 8 8 7 6 6 6 5 3 3 4 4 4 4 6 6 6 6 5 5 4 3 3 3 2 3 3 4 3 3 2 1 1 1 2 2 2 3 3 4 5 5 5 5 6 5 5 6 6 7 6 6 6 9
5 5 5 5 5 5 4 3 3 2 2 2 2 2 2 1 1 2 2 2 1 2 2 2 2 1 4 7 8 7 7 6 5 5 5 5 5 5 5 5 4 3 4 5 5 4 4 6 8 9 9 6 4 5 5 4 3 2 3 3 3 3 3 3 2 1 1 2 1 1 4 6 6 5 5 4 4 4 4 4 5 5 5 6 6 6 8
6 5 5 5 4 4 3 3 3 2 2 2 2 2 1 1 1 1 1 1 1 2 2 2 2 3 5 5 5 4 4 4 4 4 5 4 3 4 5 4 4 4 2 4 6 4 4 7 9 9 10 6 3 5 7 7 6 5 4 4 4 4 4 4 3 2 1 1 1 1 5 7 6 4 3 3 3 4 3 3 3 4 4 5 5 6 7
6 5 5 5 4 3 3 2 2 2 2 2 2 1 0 0 1 1 1 0 1 1 2 2 1 4 5 4 4 5 5 5 5 4 3 3 4 5 5 3 3 4 2 5 6 4 5 8 9 7 6 4 4 5 8 8 6 7 5 4 4 4 4 4 4 3 2 1 1 1 2 3 1 1 1 2 2 2 2 2 2 3 3 4 4 4 5
6 6 6 5 4 3 3 2 1 1 1 1 0 0 1 1 1 1 1 1 2 3 2 1 2 3 3 3 4 4 4 5 5 4 3 3 4 5 4 3 2 3 6 8 7 5 7 9 7 6 5 4 4 5 7 7 5 7 4 2 4 5 4 4 4 4 3 3 3 2 1 1 1 1 1 0 1 0 2 3 3 3 2 2 3 2 3
6 7 7 6 4 4 3 2 1 0 0 1 2 2 2 2 2 2 3 3 4 4 4 3 3 4 3 3 3 2 2 3 4 4 4 4 4 4 4 3 3 4 5 4 4 5 7 6 5 6 6 5 4 5 6 4 4 6 2 2 4 5 4 4 5 5 5 5 4 3 3 3 3 2 1 1 1 1 2 3 2 2 2 1 2 2 1
6 7 7 5 4 4 4 3 3 2 2 3 3 4 4 4 4 4 4 5 5 6 5 5 5 5 4 4 4 2 2 3 3 4 5 5 4 5 5 4 3 4 6 5 2 3 5 6 6 6 6 5 5 5 5 3 3 3 2 3 4 5 5 5 6 6 6 5 4 4 4 4 3 3 2 2 1 2 2 1 2 2 1 1 2 1 1
6 7 6 5 4 4 4 4 4 4 5 5 5 5 6 6 6 5 5 5 6 6 6 7 7 7 6 6 5 4 4 4 4 4 5 5 6 6 5 1 2 3 6 6 3 2 3 4 5 6 7 6 6 6 6 5 4 4 4 4 4 5 5 6 6 6 6 5 5 5 6 5 4 4 4 3 3 3 3 3 3 3 2 2 2 2 2
5 5 5 5 4 4 4 4 5 5 6 6 6 6 7 7 7 6 6 6 6 7 7 7 7 8 8 8 7 7 6 6 6 6 6 6 6 6 4 1 2 5 7 6 3 2 3 4 4 6 8 8 8 8 8 6 5 6 6 5 5 5 6 6 6 7 7 7 7 7 6 6 5 6 5 5 4 4 5 5 4 4 3 3 3 2 3
5 5 5 4 4 4 4 4 5 5 5 6 6 6 6 7 7 7 7 7 7 7 8 7 7 7 8 8 9 8 7 7 6 6 6 6 7 6 5 3 4 6 7 5 2 3 4 5 7 9 9 9 9 9 8 7 7 8 7 6 6 6 6 6 7 7 7 8 8 8 7 7 6 6 6 6 6 6 6 5 5 5 5 4 4 4 4
5 5 5 4 4 4 4 4 4 5 5 6 6 6 7 7 7 7 7 8 7 7 7 7 7 7 8 8 9 9 8 8 7 6 6 6 5 3 4 3 3 4 5 4 2 3 5 7 9 12 13 12 10 9 8 8 8 9 8 8 7 7 7 7 8 8 8 8 8 8 7 8 8 7 7 7 7 7 7 6 6 6 7 6 6 5 4
5 5 5 5 5 5 5 5 5 5 6 6 7 7 7 7 7 7 8 8 8 8 8 7 7 7 7 7 8 9 9 9 8 7 7 7 5 2 3 3 3 2 2 4 2 2 6 8 10 12 12 12 11 10 9 9 10 9 9 9 8 7 7 7 8 8 8 9 8 8 8 7 7 8 8 8 8 8 8 8 7 7 6 7 7 7 7
4 4 5 5 5 5 5 5 5 6 6 7 7 7 7 6 7 7 7 7 7 8 8 8 8 8 7 7 8 9 9 9 9 8 7 7 7 6 7 7 4 2 2 3 3 2 5 7 8 8 9 10 10 9 9 10 10 10 10 9 8 8 7 8 8 8 9 8 8 9 9 9 8 7 8 8 8 8 9 9 8 7 7 8 9 10 9
4 4 4 4 4 4 5 5 6 6 7 7 8 7 7 7 7 7 7 7 7 8 9 9 9 9 8 8 8 8 8 9 9 8 7 6 6 6 8 8 6 5 5 6 6 5 5 6 7 7 8 8 8 8 9 10 11 10 10 9 9 8 8 8 8 8 9 9 9 9 9 10 9 8 7 8 8 8 9 9 8 7 8 9 10 9 8
4 3 3 4 4 4 4 4 5 6 6 7 7 7 7 8 8 7 7 7 8 8 9 9 9 9 9 9 9 9 9 9 9 9 8 7 6 6 7 8 8 9 10 9 9 8 8 7 6 7 7 7 6 7 8 10 10 10 10 9 9 8 8 8 9 10 10 9 9 9 9 10 10 9 8 9 9 9 9 10 9 9 9 10 8 8 9
4 3 3 4 3 3 3 4 5 5 6 6 6 6 7 7 8 7 7 7 8 8 8 9 9 9 9 9 9 9 9 9 9 10 10 9 9 9 8 8 9 11 12 10 9 10 12 10 8 6 6 6 5 5 7 9 9 10 9 9 10 9 8 9 11 14 13 11 9 9 9 10 10 10 10 10 10 10 10 10 10 11 12 12 10 10 11
4 4 4 3 3 4 4 4 5 5 5 6 6 7 6 7 7 8 7 8 8 9 9 9 9 9 9 9 9 10 9 9 9 9 10 9 10 10 10 10 11 13 14 12 10 11 14 13 10 7 6 6 4 3 7 8 8 9 9 9 9 9 9 9 10 12 13 13 13 11 10 10 11 11 11 12 12 12 12 11 11 12 13 13 11 11 12
5 4 4 4 4 5 4 5 5 6 6 5 6 6 6 7 8 8 8 7 8 9 9 10 9 9 8 9 9 9 9 9 9 9 9 9 9 9 9 9 10 11 12 11 10 10 12 13 12 10 7 5 3 4 7 8 8 7 8 8 8 9 9 9 9 10 11 12 14 13 11 11 12 12 12 12 13 13 13 13 13 13 12 12 12 12 12
Wind_Direction
254 252 253 325 323 316 272 235 214 200 204 235 250 249 262 311 276 225 121 132 156 138 131 132 117 104 99 99 96 90 81 76 76 77 76 75 75 76 78 79 78 70 60 50 39 37 46 54 68 86 90 98 108 112 155 196 215 215 205 189 169 173 175 173 175 178 179 182 183 183 184 182 174 167 163 162 162 163 167 169 168 169 173 173 170 168 167
224 246 222 360 303 271 179 122 337 203 188 237 267 291 317 321 62 118 132 133 116 99 109 108 98 96 96 94 88 84 82 81 80 76 74 77 76 74 76 80 89 86 72 62 54 50 54 63 72 85 96 101 109 120 126 143 169 193 202 193 170 165 173 177 175 171 174 181 184 185 189 190 184 176 167 160 157 158 161 163 160 165 171 171 170 171 168
210 210 220 182 270 268 225 95 28 4 359 9 16 18 1 350 102 115 121 117 98 87 103 107 105 103 100 94 84 78 77 80 83 77 73 75 73 71 73 82 100 107 97 85 74 67 68 78 82 81 87 92 94 101 106 115 124 126 161 190 181 171 172 175 177 172 173 182 187 188 192 194 192 187 179 170 164 161 160 160 157 154 158 165 168 167 168
227 204 217 208 225 271 248 147 39 2 343 15 26 25 22 29 105 140 141 128 121 130 120 113 111 105 96 89 81 78 73 72 78 78 72 70 70 69 69 81 100 107 105 98 88 79 76 79 82 82 83 84 82 83 86 90 108 118 125 142 150 152 156 166 175 175 177 186 191 195 197 195 192 190 186 181 177 172 169 170 169 160 157 163 165 162 165
241 202 209 208 218 261 253 166 39 7 346 344 17 45 30 20 36 174 172 115 120 132 129 119 111 97 86 79 76 78 77 73 73 73 70 65 65 65 62 72 91 95 97 98 92 90 88 80 76 77 82 87 85 82 84 91 108 123 124 122 126 123 119 135 160 169 181 191 196 199 199 194 191 190 187 184 182 177 171 171 174 171 169 171 172 171 171
230 156 131 182 208 227 230 57 20 15 11 351 28 59 33 23 42 76 91 103 122 131 128 120 108 93 83 78 74 73 77 80 76 72 69 65 63 65 66 75 85 86 91 97 96 95 96 89 81 78 80 86 86 82 84 95 108 115 115 115 119 114 104 99 114 148 177 193 199 200 196 191 191 192 193 188 180 173 168 167 168 169 171 175 178 180 178
261 133 158 195 209 216 76 60 28 22 30 43 75 70 38 30 58 84 95 106 117 116 110 109 106 99 91 81 72 68 70 76 79 75 71 69 70 71 72 81 89 91 94 99 98 95 96 95 90 86 82 82 82 82 86 97 108 112 111 112 115 116 112 108 110 128 156 181 194 194 191 192 193 197 203 196 180 172 174 177 177 178 180 184 191 199 200
202 188 201 203 163 91 75 55 33 23 25 52 86 91 52 29 44 95 105 103 103 107 109 110 109 104 93 78 67 65 68 72 79 80 76 76 79 79 82 91 96 98 99 100 98 96 94 93 93 93 91 88 85 84 84 89 98 102 104 108 112 116 121 124 126 129 136 146 159 170 182 193 197 200 206 197 184 182 185 186 189 194 202 209 211 213 213
210 203 156 121 136 134 104 49 33 27 13 360 352 65 73 36 30 98 115 116 116 118 117 117 121 113 94 75 62 60 66 72 76 80 82 86 89 90 94 98 100 100 100 98 98 98 97 95 95 97 99 100 98 95 91 88 89 92 96 100 101 105 110 115 123 130 135 133 129 135 154 169 182 195 196 186 186 191 193 193 197 203 210 217 216 215 218
237 216 151 152 174 146 75 57 57 44 360 333 325 322 96 59 51 106 125 126 123 128 129 131 139 127 92 70 60 59 67 77 81 87 93 94 95 96 97 98 99 101 103 102 101 101 99 99 99 99 101 104 105 103 100 97 93 92 93 94 93 94 95 96 101 111 120 120 112 107 120 138 159 179 180 177 185 196 200 198 199 205 213 217 217 218 221
254 245 212 191 169 103 59 37 26 18 8 335 302 253 121 71 72 112 127 128 129 134 131 131 158 160 112 94 75 64 68 80 88 96 99 98 98 99 99 98 98 99 101 103 104 103 101 100 100 99 100 102 104 105 103 101 97 94 94 94 93 92 92 92 95 98 101 104 103 100 112 135 148 151 157 168 167 172 192 196 195 202 210 214 216 217 218
258 263 237 108 80 72 39 6 356 7 5 313 271 222 108 78 101 120 124 129 133 129 108 80 32 54 110 115 100 80 79 86 94 101 103 102 101 99 97 97 97 98 100 102 100 99 99 98 98 100 101 102 103 103 103 101 99 96 94 95 96 97 96 96 97 99 99 98 98 97 102 122 136 137 145 160 152 140 153 171 180 193 200 202 206 206 211
267 258 205 96 89 47 6 348 348 358 329 272 262 6 87 94 109 118 114 111 112 103 95 92 76 70 89 103 103 93 85 84 88 92 94 95 97 97 95 92 89 89 91 92 90 92 96 96 95 97 102 105 104 103 103 101 99 98 97 97 97 97 100 102 102 103 104 104 104 105 102 106 117 124 132 144 146 147 155 155 165 189 191 189 190 193 207
307 257 166 112 110 37 355 340 346 358 332 212 57 10 134 120 114 117 109 99 100 97 98 104 105 102 103 106 106 101 95 87 82 79 79 80 80 83 86 86 83 78 76 77 78 80 84 85 83 83 92 99 100 101 102 98 95 98 102 102 100 98 98 101 101 100 102 104 107 109 108 109 112 113 115 117 114 116 125 123 118 134 150 158 170 181 195
341 142 111 113 118 20 355 344 351 15 13 19 344 8 111 116 117 117 102 96 109 110 103 103 107 110 110 109 106 104 101 96 90 82 75 72 70 67 65 68 73 73 71 72 70 67 65 66 66 65 69 77 86 96 100 98 97 99 101 104 107 105 103 102 101 99 97 99 101 104 107 113 118 117 116 114 106 96 89 94 102 107 108 107 109 128 157
335 91 66 51 47 7 3 11 40 31 21 14 350 92 112 116 118 110 98 97 111 113 109 108 107 107 108 108 106 105 102 101 100 92 80 72 70 65 57 55 60 60 59 61 63 61 59 57 57 59 60 60 66 77 88 95 98 101 103 104 106 106 106 107 106 106 106 105 104 104 106 112 118 121 125 124 118 111 102 95 97 99 100 101 101 100 109
52 65 59 46 38 28 28 39 47 37 42 64 83 97 109 116 111 105 106 110 111 109 109 109 106 106 108 107 106 104 101 99 98 93 85 76 68 63 59 56 55 52 47 48 51 53 53 50 49 54 58 58 60 66 71 76 80 86 92 95 93 90 91 97 101 106 116 122 125 128 131 137 142 143 148 148 142 137 132 123 114 111 108 108 118 126 119
92 66 52 52 53 49 49 51 52 53 67 85 91 85 84 94 100 105 113 115 112 110 111 109 108 110 111 109 108 106 103 99 95 88 80 69 56 53 54 51 49 46 43 42 42 46 50 49 45 45 47 50 57 62 64 66 70 75 81 87 88 82 78 80 87 93 96 100 108 117 119 123 140 154 168 176 173 163 146 128 119 131 136 125 116 125 135
107 54 41 49 55 56 59 62 63 64 76 92 95 88 82 87 95 104 112 112 111 112 113 112 116 118 117 116 116 114 110 105 98 90 83 70 57 53 52 48 44 43 43 42 40 43 50 52 49 47 46 48 51 54 56 61 70 78 86 92 93 88 82 78 75 79 87 88 88 101 106 99 96 108 127 159 178 177 161 137 111 105 121 129 124 108 74
84 87 81 74 67 64 64 67 68 70 78 88 92 93 95 97 98 102 106 109 111 113 113 115 118 120 120 121 121 120 119 114 108 101 91 78 68 62 57 54 55 53 53 52 50 51 55 55 54 53 50 50 52 51 49 52 64 80 89 93 90 84 84 83 77 73 76 78 79 90 106 107 104 103 102 106 117 140 160 160 149 135 132 153 164 135 78
98 107 100 88 75 64 60 65 75 81 86 89 91 96 102 104 103 102 102 102 103 106 108 111 113 114 115 117 117 118 118 115 111 103 91 79 70 62 56 55 56 55 52 50 50 54 59 61 66 69 68 69 69 60 51 50 61 73 78 80 79 75 70 71 72 69 70 71 72 74 81 90 96 97 98 101 101 99 106 120 134 140 140 154 169 155 131
97 92 84 83 81 71 68 76 84 88 90 92 94 97 100 102 104 107 106 102 99 100 101 102 104 106 109 110 111 110 107 104 101 92 81 75 69 60 57 56 54 49 43 39 38 40 41 42 45 55 68 79 82 84 85 78 71 70 68 66 70 77 78 76 73 70 71 73 71 69 69 71 78 84 88 88 87 86 89 92 93 102 112 114 139 176 221
96 96 91 88 90 91 92 94 96 93 90 90 92 93 95 96 101 107 108 103 98 96 95 92 91 95 99 102 104 104 99 94 89 79 69 61 53 49 50 50 48 45 41 34 29 29 33 35 34 38 49 59 60 69 81 80 73 72 75 76 77 83 92 93 86 77 75 78 77 78 75 59 47 49 53 59 65 63 54 50 50 46 43 37 18 335 308
100 102 100 97 98 100 101 101 101 98 94 92 92 93 94 95 97 101 102 101 96 92 93 93 91 90 92 93 97 100 95 86 83 79 69 56 47 45 43 41 42 40 35 31 27 24 25 31 39 44 50 53 55 59 65 71 74 78 83 90 90 86 85 88 85 81 80 80 77 77 78 76 70 50 28 22 27 36 39 38 31 23 17 8 357 348 335
98 99 99 98 100 104 105 102 98 95 95 97 97 97 98 98 98 99 99 98 96 94 97 98 94 90 93 97 101 106 103 95 95 92 68 48 43 43 37 34 37 32 25 24 25 21 16 20 34 49 53 53 57 61 63 69 75 79 84 90 94 94 87 77 73 78 79 76 76 75 73 77 91 107 106 68 31 19 14 13 13 10 4 360 357 352 342
98 101 102 100 101 104 105 103 101 99 99 100 100 101 104 105 103 101 101 100 100 101 102 101 99 98 105 109 109 111 111 101 95 95 62 32 30 29 21 20 23 26 25 17 5 14 30 32 35 47 52 51 54 59 66 73 74 74 82 92 107 118 109 91 75 74 73 69 73 78 79 80 80 92 110 109 89 63 22 9 11 7 359 355 357 359 358
99 103 105 104 100 99 99 101 104 103 101 100 100 104 110 113 108 102 102 104 106 108 108 110 112 111 113 119 119 115 125 128 91 59 7 2 10 7 7 12 9 19 28 4 340 10 40 41 28 40 50 52 59 67 75 83 81 76 76 79 90 105 101 86 73 72 79 88 95 91 88 87 82 81 86 81 72 71 62 43 34 22 6 356 352 352 355
97 98 101 101 100 100 101 102 103 102 100 100 100 100 107 114 109 99 96 99 101 103 105 109 114 114 111 117 119 107 120 153 40 7 340 341 350 343 348 360 353 6 21 355 336 8 35 41 13 44 52 52 62 74 81 85 87 88 87 80 77 79 76 69 68 78 99 113 113 108 104 96 84 73 73 69 58 46 43 47 49 39 21 5 353 347 347
89 92 96 98 101 105 105 103 102 101 98 98 99 99 103 108 105 99 98 101 105 113 112 106 111 116 103 104 126 104 75 6 357 352 328 318 323 326 336 348 344 355 7 350 348 11 31 67 160 81 88 82 79 84 86 89 95 100 106 118 120 115 96 71 56 57 87 103 106 109 104 91 77 64 57 60 60 49 40 47 53 41 18 14 14 353 338
94 98 101 103 106 107 105 102 101 100 98 97 97 96 94 96 100 98 94 92 99 121 130 138 177 187 169 223 239 349 351 338 335 328 320 318 315 317 328 327 314 321 345 330 331 354 5 212 201 193 174 139 125 117 102 103 108 104 124 163 166 163 155 132 91 61 64 86 100 101 88 76 71 71 65 61 64 59 46 42 46 41 24 21 24 2 335
102 102 104 106 106 103 102 102 99 96 95 93 92 90 84 85 98 102 97 89 71 46 142 221 232 238 238 241 256 292 303 308 321 319 312 312 310 312 331 323 292 272 294 317 312 316 240 220 219 203 180 161 156 144 126 121 118 102 97 149 160 162 155 134 110 80 68 76 82 84 80 71 63 68 68 64 62 60 53 44 42 39 33 29 23 12 9
107 107 110 112 109 104 104 104 101 98 93 86 84 87 76 67 76 84 68 43 20 354 320 273 253 247 247 253 261 274 286 300 308 303 306 324 325 302 300 302 271 245 238 281 291 279 225 222 231 211 178 172 167 154 144 142 142 138 124 117 115 91 81 94 88 61 55 67 69 68 75 74 61 54 60 62 61 56 52 49 44 40 39 38 31 27 32
116 118 120 120 119 115 111 107 105 99 92 80 68 63 58 58 67 67 45 18 359 341 327 304 273 253 252 257 258 265 288 304 308 298 299 316 310 283 282 289 279 257 240 250 263 261 231 222 225 207 180 177 181 173 161 151 150 158 160 155 155 148 94 99 99 73 46 47 45 43 58 78 74 58 52 57 61 62 59 54 49 46 47 47 39 38 47
114 116 119 118 117 116 114 112 106 93 86 83 65 47 59 72 59 50 42 13 352 353 356 341 290 256 249 250 260 276 291 301 300 287 286 294 296 289 288 293 290 280 263 244 244 245 233 223 217 201 187 188 192 188 178 170 169 175 177 175 178 181 147 95 89 72 52 46 41 34 36 60 81 74 61 55 58 60 61 59 55 51 52 54 50 47 53
119 114 116 114 108 105 106 108 103 84 66 77 76 62 72 81 50 37 29 3 358 20 32 35 45 6 282 280 286 293 299 302 297 286 287 298 303 299 295 297 298 288 262 248 249 241 227 219 209 192 189 197 201 197 194 189 187 192 194 188 186 190 198 205 198 107 88 81 69 31 14 47 81 80 70 65 59 56 59 62 61 58 54 53 55 48 43
146 131 128 125 116 108 103 100 87 61 41 63 82 91 93 82 41 27 24 14 32 67 66 66 67 11 300 295 300 304 302 306 311 310 311 317 320 319 318 311 300 283 254 247 252 238 215 225 223 201 184 184 198 208 209 205 198 210 221 204 189 195 210 209 205 206 129 86 81 38 41 54 63 63 64 69 67 61 62 63 61 61 58 52 54 54 48
169 156 141 137 130 119 114 101 77 64 72 81 82 95 103 79 4 357 18 40 105 104 98 98 68 360 333 327 334 334 325 322 323 323 330 343 352 351 349 344 349 6 349 264 261 243 214 240 242 209 179 172 201 227 235 234 216 205 218 217 196 197 209 210 209 221 206 133 188 13 43 51 50 39 41 56 60 60 68 75 68 64 60 55 54 58 58
175 173 159 151 147 137 127 110 67 68 98 104 86 84 85 359 324 316 328 212 173 148 130 129 7 348 349 353 351 345 341 339 331 322 332 356 1 359 2 4 2 360 308 265 273 267 227 238 239 206 182 196 220 231 259 267 229 195 201 218 207 205 212 211 215 228 238 239 261 312 32 49 48 349 17 43 60 57 54 70 86 82 67 58 58 62 64
172 179 171 162 159 153 144 133 91 83 108 122 94 147 285 303 298 275 263 219 203 203 197 206 278 308 319 323 316 308 310 322 326 321 317 323 332 346 3 14 348 299 264 257 264 253 229 229 221 199 207 236 229 236 276 284 214 182 192 220 205 208 218 216 219 230 230 233 254 275 290 290 253 247 309 359 113 18 355 22 69 100 98 74 66 63 67
173 177 175 174 180 182 178 177 177 152 277 294 290 269 265 269 264 256 253 237 222 220 227 246 268 279 286 299 306 294 282 301 311 307 305 311 324 333 328 311 312 327 320 290 258 235 228 225 206 196 216 234 223 238 281 288 178 166 182 214 206 218 229 221 225 236 234 236 255 265 252 244 235 220 233 250 181 224 309 348 53 100 121 113 101 86 72
169 173 176 182 193 199 203 215 231 251 269 283 284 272 262 259 257 257 257 247 232 225 233 249 260 265 272 282 287 280 266 271 274 275 282 290 303 312 305 275 261 321 343 344 303 244 240 230 206 197 216 232 221 221 246 248 187 183 214 214 209 223 230 223 231 245 244 239 249 250 234 233 234 225 228 241 213 206 235 238 195 180 175 146 139 138 121
170 176 184 194 204 214 224 235 249 266 275 280 279 272 263 257 254 254 257 251 237 233 240 249 253 256 264 272 272 267 266 265 259 258 264 266 272 289 302 277 209 292 323 332 327 286 266 247 218 201 207 224 232 229 228 222 209 218 238 233 219 226 233 233 238 248 250 246 246 242 235 233 233 228 231 238 235 227 221 211 203 203 199 180 174 171 159
177 185 194 205 214 223 232 243 256 268 274 277 275 269 261 256 252 251 253 252 247 245 249 253 254 255 258 261 262 263 264 263 257 257 262 260 253 257 272 272 245 275 304 327 335 279 259 257 239 217 211 220 235 240 237 229 222 228 240 241 232 233 239 241 241 244 246 243 241 242 240 234 228 229 235 239 237 233 225 210 195 195 207 209 201 186 176
184 192 199 208 219 228 235 245 255 264 272 274 272 264 256 251 250 250 253 255 256 256 255 256 258 258 255 254 257 260 262 265 264 257 257 262 253 234 217 216 254 277 302 330 330 245 237 238 238 241 246 251 251 244 236 230 231 234 238 240 240 239 241 243 246 249 247 242 240 242 240 234 227 225 228 231 230 230 227 216 202 196 200 204 204 205 204
191 199 206 213 222 232 241 251 260 270 276 277 275 270 264 260 258 257 257 257 258 257 254 254 258 261 257 255 256 257 259 267 271 263 262 280 282 231 190 201 259 291 321 340 312 248 247 246 245 253 267 277 274 259 240 229 231 236 237 236 239 240 240 243 248 249 245 240 238 236 233 232 231 229 228 230 231 229 224 215 204 199 199 199 199 205 213
198 206 217 223 229 239 248 255 264 275 279 279 278 275 271 268 266 262 260 258 256 255 253 252 255 260 260 257 257 256 257 262 265 258 257 272 281 235 205 235 257 272 333 358 355 262 259 263 262 264 269 272 270 261 244 230 229 234 236 236 237 238 240 244 248 247 244 238 232 227 229 232 230 227 228 230 230 230 230 224 212 203 203 204 199 196 201
201 210 219 224 232 242 248 252 262 271 274 275 276 275 273 273 270 264 261 260 257 254 253 252 252 256 259 257 255 255 256 259 262 258 251 251 254 253 255 263 264 267 307 333 340 293 279 285 288 285 277 269 263 254 238 229 231 233 233 233 235 237 240 244 245 243 241 238 231 228 232 232 221 214 222 230 231 231 238 240 228 208 203 213 218 217 214
202 210 217 223 233 243 249 255 264 270 271 273 275 276 276 277 275 269 266 265 260 256 256 256 254 254 256 254 253 254 256 258 262 261 253 248 252 254 250 248 251 267 288 297 300 302 311 318 317 307 292 276 260 242 227 227 232 234 230 230 233 235 237 242 245 243 240 238 234 233 236 236 229 223 228 237 238 235 238 243 238 219 211 221 232 239 234
191 201 211 219 227 239 247 251 259 267 270 273 278 280 277 275 273 271 270 269 265 261 261 261 258 256 254 252 251 253 253 251 253 255 255 257 262 261 253 251 257 268 277 282 282 283 291 306 318 318 310 294 266 237 223 225 231 232 227 226 230 230 227 231 237 238 236 234 233 233 234 234 234 234 236 241 243 241 238 237 234 227 224 224 224 228 236
189 204 213 216 223 243 260 263 270 279 282 281 285 287 283 275 274 275 274 273 273 272 271 269 266 263 258 252 250 250 251 250 251 252 256 260 261 260 257 258 260 266 273 275 267 261 268 280 293 304 311 309 287 239 224 227 233 233 229 228 229 228 225 226 232 235 234 230 231 236 238 236 236 240 242 243 242 241 238 235 233 233 238 239 229 222 236
206 214 222 229 240 257 274 280 283 289 291 287 286 287 283 278 279 280 278 276 277 278 277 276 273 269 263 257 253 251 251 252 251 251 255 260 260 257 257 258 260 266 273 275 263 253 261 272 276 274 288 311 312 247 226 230 235 234 233 234 234 232 231 232 239 245 244 237 232 236 242 244 244 244 244 243 242 240 236 233 234 240 251 257 250 232 232
219 224 234 244 249 256 267 273 276 283 291 293 290 289 290 288 287 286 283 279 280 282 284 284 280 272 265 262 258 253 250 252 253 255 259 261 259 258 260 263 262 264 271 275 267 251 252 261 265 263 269 290 293 234 228 239 247 242 236 240 245 242 236 232 236 244 248 244 241 242 245 247 248 248 246 243 244 244 239 235 237 242 249 257 259 250 240